Regional Weather Roundup
Issued by NWS

Home | Current Version | Previous Version | Text Only | Print | Product List | Glossary On
Versions: 1 2 3 4 5 6 7 8 9 10 11 12 13 14 15 16 17 18 19 20 21 22 23 24 25 26 27 28 29 30 31 32 33 34 35 36 37 38 39 40 41 42 43 44 45 46 47 48 49 50
000
ASUS42 KFFC 272303
RWRGA
WEATHER ROUNDUP FOR GEORGIA
NATIONAL WEATHER SERVICE PEACHTREE CITY GA
700 PM EDT MON JUL 27 2015

NOTE: "FAIR" INDICATES FEW OR NO CLOUDS BELOW 12,000 FEET WITH NO
SIGNIFICANT WEATHER AND/OR OBSTRUCTIONS TO VISIBILITY.

* = USE WITH CAUTION. THE STATIONS MARKED WITH AN ASTERISK MAY NOT
REPORT WEATHER SUCH AS PRECIPITATION, FOG, OR THUNDER AND ARE NOT
QUALITY CONTROLLED BY NWS.

THE REMARK "TC" DENOTES TEMPERATURE READING IN DEGREES CELSIUS.

GAZ001>058-280000-
NORTH GEORGIA

CITY           SKY/WX    TMP DP  RH WIND       PRES   REMARKS
ATLANTA        CLOUDY    83  71  67 NW13      29.97F
ATHENS         MOSUNNY   93  67  42 NE3       29.94S HX  96
CHAMBLEE       PTSUNNY   85  71  63 SW7       29.97S HX  90
PEACHTREE CITY MOSUNNY   93  68  43 N5        29.95S HX  97
ROME           PTSUNNY   88  74  63 N3        29.94R HX  96
WEST ATLANTA   PTSUNNY   79  71  76 W8        29.97R
GAINESVILLE    PTSUNNY   88  69  53 NW7       30.00S HX  92
CARTERSVILLE   PTSUNNY   89  72  56 CALM      29.96R HX  96


CITY           SKY/WX    TMP DP  RH WIND       PRES   REMARKS
DALTON*        PTSUNNY   88  73  62 CALM      29.95S HX  96
LAWRENCEVILLE* SUNNY     86  68  54 CALM      29.95S
MARIETTA       PTSUNNY   83  72  69 SW9       29.98R
KENNESAW*      MOSUNNY   90  72  55 S3        30.00R HX  96
BLAIRSVILLE*     N/A     83  51  32 CALM      30.03S
$$

GAZ059>098-102>109-280000-
CENTRAL GEORGIA

CITY           SKY/WX    TMP DP  RH WIND       PRES   REMARKS
AUGUSTA-BUSH   MOSUNNY   97  66  36 SE6       29.89R HX 100
AUGUSTA-DANIEL MOSUNNY   97  64  33 E5        29.91S HX  99
COLUMBUS       SUNNY     93  66  40 W7        29.91S HX  96
MACON          MOSUNNY   94  66  39 SE6       29.91S HX  97
ROBINS AFB     MOSUNNY   94  64  36 SE6       29.90F HX  96


CITY           SKY/WX    TMP DP  RH WIND       PRES   REMARKS
LAGRANGE*      SUNNY     96  76  53 N3        29.94S HX 110
SYLVANIA*      SUNNY     95  69  42 E3        29.92S HX 100
MILLEDGEVILLE* MOSUNNY   95  63  34 CALM      29.91S HX  96
$$

GAZ099>101-110>166-280000-
SOUTH GEORGIA

CITY           SKY/WX    TMP DP  RH WIND       PRES   REMARKS
SAVANNAH       PTSUNNY   86  74  67 SE14      29.93R HX  94
VALDOSTA       PTSUNNY   79  76  90 NE5       29.92S
ALMA           MOSUNNY   87  75  67 E8        29.92R HX  96
ST SIMONS      MOSUNNY   83  77  82 E10       29.92S HX  92
FT STEWART     SUNNY     87  76  67 E10       29.90S HX  97
ALBANY         SUNNY     94  67  41 NE8       29.92F HX  97
HUNTER AFB     MOSUNNY   85  79  82 SE8       29.91R HX  98
MOODY AFB      PTSUNNY   82  74  76 E3        29.91F
BRUNSWICK      PTSUNNY   86  77  74 E7        29.93S HX  97


CITY           SKY/WX    TMP DP  RH WIND       PRES   REMARKS
BAINBRIDGE*    PTSUNNY   97  70  41 E9        29.90F HX 103
MOULTRIE*      MOSUNNY   88  73  62 SE8G22    29.92S HX  96
VIDALIA*       SUNNY     93  63  36 E7        29.92S HX  94
WAYCROSS*      MOSUNNY   87  82  84 E7        29.92S HX 105
DOUGLAS*       MOSUNNY   90  73  58 SE6       29.93S HX  98
$$


USA.gov is the U.S. government's official web portal to all federal, state and local government web resources and services.